Location: Potomac
(46.8816°N, 113.5795°W)
Time: 18:03:49
(UTC+00:00)

UKube-1 - Pass Details

Date: 25 June 2022
Orbit: 608 x 615 km, 98.4° (Epoch: 18 August)

Event Time Altitude Azimuth Distance (km) Brightness Sun altitude
Rises 06:04:04 0° 9° (N) 2,900 ? -16.7°
Reaches altitude 10° 06:06:18 10° 4° (N) 1,989 ? -16.8°
Maximum altitude 06:10:29 51° 289° (WNW) 779 ? -17.1°
Enters shadow 06:13:49 15° 217° (SW) 1,649 ? -17.3°
